sat.trackr.live / text

‹ back to catalog

STARLINK-34849

NORAD 66005 · 2025-232A

PAYLOAD ACTIVE UNKNOWN

§ Identity

Operator
Country
US
Launch date
2025-10-16
Launch site
AFETR
Launch vehicle
Mass (kg)
RCS (m²)

Purposes: comms

External: N2YO · Heavens-Above · Gunter

§ Orbital elements

Epoch: 2026-09-20T05:43:39.058464Z

Period
93.85 min
Inclination
53.1601°
Eccentricity
0.0001034
Mean motion
15.34399267 rev/d
Perigee alt
462.0 km
Apogee alt
463.4 km
Semi-major
6,840.8 km
B*
1.9177e-4
RAAN
276.5850°
Arg perigee
79.3445°
Mean anomaly
280.7674°
Rev number
5,326

§ Raw data

STARLINK-348491 66005U 25232A   26263.23864651  .00006108  00000+0  19177-3 0  99972 66005  53.1601 276.5850 0001034  79.3445 280.7674 15.34399267 53267

JSON: /api/v1/satellites/66005 · /tle

For live sub-satellite position, see the globe view (requires WebGL).

§ Visibility from observer

Set your observer location to see the next 7 days of passes ≥ 10°. The values pass through the URL so the page stays shareable.

No JS? Fill the form by hand. The geolocation button needs JavaScript.